Flag for Canada Weather past 2 weeks in Markham, Ontario, Canada

Now
12 °F

Clear.


Feels Like: -2 °F
Forecast: 7 / 24 °F
Wind: 12 mph from North

Location: Toronto Buttonville

Current Time: Jan 27, 2015 at 11:37:48 PM

Latest Report: Jan 27, 2015 at 11:00 PM


Visibility: 15 mi

Pressure: 30.16 "Hg

Humidity: 52%

Dew point: -2 °F

Location of MarkhamLocation

Historic Weather in Markham — Graph

°F

Markham temperature yesterday

Maximum temperature yesterday: 18 °F (at 1:00 PM)
Minimum temperature yesterday: 3 °F (at 8:00 AM)
Average temperature yesterday: 11 °F

Past Weeks' High & Low Weather Summary

 TemperatureHumidityPressure
High41 °F (Jan 18, 7:00 AM)100% (Jan 18, 10:00 AM)30.85 "Hg (Jan 18, 10:00 AM)
Low-6 °F (Jan 13, 5:00 AM)30% (Jan 13, 4:00 PM)29.47 "Hg (Jan 24, 3:00 PM)
Average18 °F70%30.07 "Hg
* Reported Jan 12 10:00 PM — Jan 27 10:00 PM, Markham, Weather by CustomWeather, © 2014

Note: Actual official high and low records may vary slightly from our data, if they occured in-between our weather recording intervals... More about our weather records

Advertising

Markham weather history for previous 24 hours

 ConditionsComfort  
Time TempWeatherWind HumidityBarometerVisibility
10:00 PM
Jan 27
14 °FClear.14 mph48%30.15 "Hg15 mi
9:00 PM16 °FClear.13 mph45%30.16 "Hg15 mi
8:00 PM12 °FClear.8 mph52%30.17 "Hg15 mi
7:00 PM14 °FClear.7 mph44%30.17 "Hg15 mi
6:00 PM14 °FPassing clouds.5 mph48%30.16 "Hg15 mi
5:00 PM18 °FScattered clouds.10 mph35%30.14 "Hg15 mi
4:00 PM18 °FPartly sunny.9 mph35%30.13 "Hg15 mi
3:00 PM18 °FPartly sunny.13 mph41%30.10 "Hg15 mi
2:00 PM19 °FPassing clouds.12 mph38%30.09 "Hg15 mi
1:00 PM18 °FPassing clouds.10 mph38%30.09 "Hg15 mi
12:00 PM18 °FScattered clouds.8 mph41%30.10 "Hg15 mi
11:00 AM14 °FPartly sunny.10 mph48%30.11 "Hg15 mi
10:00 AM12 °FPartly sunny.10 mph52%30.11 "Hg15 mi
9:00 AM10 °FLight snow. Partly sunny.9 mph67%30.10 "Hg12 mi
8:00 AM10 °FLight snow. Overcast.7 mph61%30.10 "Hg5 mi
7:00 AM10 °FLight snow. Mostly cloudy.7 mph67%30.07 "Hg8 mi
6:00 AM10 °FLight snow. Overcast.9 mph67%30.05 "Hg10 mi
5:00 AM10 °FLight snow. Overcast.9 mph72%30.04 "Hg12 mi
4:00 AM9 °FLight snow. Overcast.9 mph78%30.04 "Hg7 mi
3:50 AMN/ALight snow.8 mphN/AN/A3 mi
3:00 AM10 °FLight snow. Ice fog.7 mph72%30.03 "Hg2 mi
2:00 AM10 °FLight snow. Overcast.8 mph72%30.02 "Hg12 mi
1:00 AM10 °FLight snow. Overcast.7 mph72%30.03 "Hg12 mi
12:00 AM12 °FLight snow. Overcast.9 mph62%30.03 "Hg6 mi
11:00 PM
Jan 26
12 °FLight snow. Overcast.8 mph57%30.04 "Hg15 mi
Weather by CustomWeather, © 2014

See weather overviewHow to use our weather pages